• In Hungary
  • List of Countries
  • For 7 days
  • Water Temperature
  • Satellite Maps
  • Weather Map
  • News
  • Weather Widgets
  • user-avatar
    Login

    Hourly Weather Perugia

    Today, 19 September, Wednesday

    Time Temperature Precipitation Wind Pressure Humidity
    00:00 +20°C° 0 mm 1 mps 731 mmHg 84%
    01:00 +20°C° 0 mm 1 mps 731 mmHg 84%
    02:00 +18°C° 0 mm 0 mps 731 mmHg 85%
    03:00 +18°C° 0 mm 0 mps 731 mmHg 85%
    04:00 +18°C° 0 mm 0 mps 731 mmHg 85%
    05:00 +20°C° 0 mm 1 mps 731 mmHg 84%
    06:00 +21°C° 0 mm 1 mps 731 mmHg 82%
    07:00 +21°C° 0 mm 1 mps 731 mmHg 81%
    08:00 +23°C° 0 mm 1 mps 731 mmHg 73%
    09:00 +25°C° 0 mm 1 mps 732 mmHg 66%
    10:00 +26°C° 0 mm 1 mps 732 mmHg 58%
    11:00 +27°C° 0.2 mm 2 mps 732 mmHg 56%
    12:00 +28°C° 0.2 mm 2 mps 732 mmHg 53%
    13:00 +29°C° 0.2 mm 2 mps 732 mmHg 51%
    14:00 +28°C° 0.5 mm 2 mps 732 mmHg 55%
    15:00 +27°C° 0.5 mm 2 mps 731 mmHg 59%
    16:00 +26°C° 0.5 mm 2 mps 731 mmHg 64%
    17:00 +25°C° 0.5 mm 1 mps 731 mmHg 70%
    18:00 +24°C° 0.5 mm 1 mps 731 mmHg 76%
    19:00 +22°C° 0.5 mm 1 mps 731 mmHg 82%
    20:00 +22°C° 0.1 mm 1 mps 731 mmHg 84%
    21:00 +22°C° 0.1 mm 1 mps 731 mmHg 85%
    22:00 +21°C° 0.1 mm 1 mps 731 mmHg 87%
    23:00 +21°C° 0 mm 1 mps 731 mmHg 88%

    Tomorrow, 20 September, Thursday

    Time Temperature Precipitation Wind Pressure Humidity
    00:00 +21°C° 0 mm 1 mps 731 mmHg 88%
    01:00 +21°C° 0 mm 1 mps 731 mmHg 89%
    02:00 +20°C° 0 mm 1 mps 731 mmHg 89%
    03:00 +20°C° 0 mm 1 mps 730 mmHg 90%
    04:00 +20°C° 0 mm 1 mps 730 mmHg 90%
    05:00 +20°C° 0 mm 1 mps 730 mmHg 89%
    06:00 +20°C° 0 mm 1 mps 730 mmHg 87%
    07:00 +21°C° 0 mm 1 mps 730 mmHg 86%
    08:00 +21°C° 0 mm 2 mps 731 mmHg 77%
    09:00 +24°C° 0 mm 2 mps 731 mmHg 68%
    10:00 +26°C° 0 mm 2 mps 731 mmHg 59%
    11:00 +27°C° 0.3 mm 2 mps 731 mmHg 56%
    12:00 +28°C° 0.3 mm 2 mps 731 mmHg 53%
    13:00 +29°C° 0.3 mm 2 mps 731 mmHg 51%
    14:00 +29°C° 0.5 mm 2 mps 731 mmHg 53%
    15:00 +28°C° 0.5 mm 2 mps 731 mmHg 56%
    16:00 +27°C° 0.5 mm 3 mps 730 mmHg 59%
    17:00 +26°C° 0.2 mm 2 mps 730 mmHg 65%
    18:00 +24°C° 0.2 mm 2 mps 730 mmHg 70%
    19:00 +23°C° 0.2 mm 2 mps 730 mmHg 76%
    20:00 +22°C° 0.1 mm 1 mps 730 mmHg 79%
    21:00 +22°C° 0.1 mm 1 mps 730 mmHg 81%
    22:00 +21°C° 0.1 mm 1 mps 730 mmHg 83%
    23:00 +21°C° 0.1 mm 1 mps 730 mmHg 84%

    Day after tomorrow, 21 September, Friday

    Time Temperature Precipitation Wind Pressure Humidity
    00:00 +21°C° 0.1 mm 1 mps 730 mmHg 85%
    01:00 +20°C° 0.1 mm 1 mps 730 mmHg 86%
    02:00 +20°C° 0.1 mm 1 mps 729 mmHg 86%
    03:00 +20°C° 0.1 mm 1 mps 729 mmHg 86%
    04:00 +20°C° 0.1 mm 1 mps 729 mmHg 87%
    05:00 +20°C° 0 mm 1 mps 729 mmHg 85%
    06:00 +21°C° 0 mm 1 mps 730 mmHg 83%
    07:00 +21°C° 0 mm 1 mps 730 mmHg 81%
    08:00 +23°C° 0 mm 1 mps 730 mmHg 72%
    09:00 +26°C° 0 mm 1 mps 731 mmHg 63%
    10:00 +26°C° 0 mm 0 mps 731 mmHg 53%
    11:00 +29°C° 0.1 mm 1 mps 731 mmHg 50%
    12:00 +30°C° 0.1 mm 1 mps 731 mmHg 47%
    13:00 +31°C° 0.1 mm 1 mps 731 mmHg 43%
    14:00 +30°C° 0.1 mm 1 mps 730 mmHg 44%
    15:00 +30°C° 0.1 mm 2 mps 730 mmHg 46%
    16:00 +29°C° 0.1 mm 2 mps 730 mmHg 47%
    17:00 +27°C° 0 mm 2 mps 730 mmHg 55%
    18:00 +25°C° 0 mm 2 mps 730 mmHg 63%
    19:00 +23°C° 0 mm 2 mps 730 mmHg 71%
    20:00 +23°C° 0 mm 1 mps 730 mmHg 74%
    21:00 +22°C° 0 mm 1 mps 730 mmHg 78%
    22:00 +21°C° 0 mm 1 mps 730 mmHg 81%
    23:00 +21°C° 0 mm 1 mps 730 mmHg 83%

    22 September, Saturday

    Time Temperature Precipitation Wind Pressure Humidity
    00:00 +21°C° 0 mm 1 mps 730 mmHg 84%
    01:00 +20°C° 0 mm 1 mps 730 mmHg 86%
    02:00 +20°C° 0 mm 1 mps 730 mmHg 87%
    03:00 +20°C° 0 mm 1 mps 730 mmHg 87%
    04:00 +19°C° 0 mm 1 mps 730 mmHg 88%
    05:00 +20°C° 0 mm 1 mps 730 mmHg 86%
    06:00 +20°C° 0 mm 1 mps 730 mmHg 84%
    07:00 +21°C° 0 mm 1 mps 730 mmHg 81%
    08:00 +23°C° 0 mm 1 mps 731 mmHg 72%
    09:00 +25°C° 0 mm 1 mps 731 mmHg 62%
    10:00 +27°C° 0 mm 2 mps 732 mmHg 53%
    11:00 +28°C° 0 mm 2 mps 731 mmHg 50%
    12:00 +29°C° 0 mm 3 mps 731 mmHg 46%
    13:00 +30°C° 0 mm 3 mps 731 mmHg 43%
    14:00 +30°C° 0 mm 4 mps 731 mmHg 44%
    15:00 +30°C° 0 mm 4 mps 731 mmHg 45%
    16:00 +29°C° 0 mm 4 mps 730 mmHg 47%
    17:00 +27°C° 0 mm 3 mps 730 mmHg 55%
    18:00 +25°C° 0 mm 3 mps 730 mmHg 64%
    19:00 +23°C° 0 mm 2 mps 730 mmHg 72%
    20:00 +21°C° 0 mm 2 mps 730 mmHg 77%
    21:00 +21°C° 0 mm 1 mps 730 mmHg 81%
    22:00 +21°C° 0 mm 1 mps 731 mmHg 86%
    23:00 +20°C° 0 mm 1 mps 731 mmHg 88%

    23 September, Sunday

    Time Temperature Precipitation Wind Pressure Humidity
    00:00 +20°C° 0 mm 1 mps 731 mmHg 89%
    01:00 +20°C° 0 mm 1 mps 731 mmHg 91%
    02:00 +20°C° 0 mm 1 mps 731 mmHg 92%
    03:00 +19°C° 0 mm 1 mps 731 mmHg 93%
    04:00 +19°C° 0 mm 1 mps 731 mmHg 94%
    05:00 +20°C° 0 mm 1 mps 731 mmHg 92%
    06:00 +20°C° 0 mm 1 mps 731 mmHg 90%
    07:00 +20°C° 0 mm 1 mps 731 mmHg 88%
    08:00 +22°C° 0 mm 1 mps 731 mmHg 80%
    09:00 +24°C° 0 mm 1 mps 732 mmHg 72%
    10:00 +26°C° 0 mm 2 mps 732 mmHg 63%
    11:00 +27°C° 0.1 mm 2 mps 732 mmHg 60%
    12:00 +28°C° 0.1 mm 2 mps 732 mmHg 57%
    13:00 +29°C° 0.1 mm 3 mps 732 mmHg 54%
    14:00 +28°C° 0.1 mm 3 mps 731 mmHg 56%
    15:00 +28°C° 0.1 mm 3 mps 731 mmHg 59%
    16:00 +28°C° 0.1 mm 4 mps 730 mmHg 61%
    17:00 +26°C° 0.1 mm 3 mps 730 mmHg 70%
    18:00 +24°C° 0.1 mm 3 mps 730 mmHg 78%
    19:00 +21°C° 0.1 mm 2 mps 730 mmHg 87%
    20:00 +21°C° 0 mm 2 mps 729 mmHg 90%
    21:00 +20°C° 0 mm 2 mps 729 mmHg 93%
    22:00 +20°C° 0 mm 2 mps 729 mmHg 96%
    23:00 +20°C° 0 mm 3 mps 729 mmHg 96%

    24 September, Monday

    Time Temperature Precipitation Wind Pressure Humidity
    00:00 +20°C° 0 mm 3 mps 728 mmHg 95%
    01:00 +20°C° 0 mm 3 mps 728 mmHg 95%
    02:00 +20°C° 0 mm 4 mps 727 mmHg 95%
    03:00 +19°C° 0 mm 4 mps 727 mmHg 95%
    04:00 +19°C° 0 mm 4 mps 726 mmHg 94%
    05:00 +20°C° 0 mm 4 mps 726 mmHg 93%
    06:00 +20°C° 0 mm 5 mps 725 mmHg 91%
    07:00 +21°C° 0 mm 5 mps 725 mmHg 89%
    08:00 +22°C° 0.1 mm 6 mps 725 mmHg 82%
    09:00 +23°C° 0.1 mm 7 mps 725 mmHg 75%
    10:00 +24°C° 0.1 mm 8 mps 724 mmHg 68%
    11:00 +24°C° 0.3 mm 8 mps 724 mmHg 63%
    12:00 +24°C° 0.3 mm 8 mps 724 mmHg 59%
    13:00 +24°C° 0.3 mm 7 mps 723 mmHg 54%
    14:00 +24°C° 0 mm 7 mps 723 mmHg 50%
    15:00 +24°C° 0 mm 6 mps 723 mmHg 45%
    16:00 +23°C° 0 mm 5 mps 723 mmHg 41%
    17:00 +21°C° 0 mm 4 mps 723 mmHg 47%
    18:00 +19°C° 0 mm 3 mps 723 mmHg 53%
    19:00 +18°C° 0 mm 1 mps 724 mmHg 58%
    20:00 +18°C° 0 mm 1 mps 724 mmHg 59%
    21:00 +16°C° 0 mm 1 mps 725 mmHg 60%
    22:00 +16°C° 0 mm 1 mps 725 mmHg 61%
    23:00 +16°C° 0.1 mm 1 mps 726 mmHg 64%
    Show more